Regional Weather Roundup
Issued by NWS

Home | Current Version | Previous Version | Graphics & Text | Print | Product List | Glossary On
Versions: 1 2 3 4 5 6 7 8 9 10 11 12 13 14 15 16 17 18 19 20 21 22 23 24 25 26 27
000
ASUS45 KBOU 280607
RWRCO

WEATHER ROUNDUP FOR COLORADO
NATIONAL WEATHER SERVICE DENVER/BOULDER CO
1200 AM MDT SAT MAY 28 2016

NOTE: "FAIR" INDICATES FEW OR NO CLOUDS BELOW 12000 FEET WITH NO
SIGNIFICANT WEATHER AND/OR OBSTRUCTIONS TO VISIBILITY.

COZ001>005-013-030-031-280700-
...NORTHWEST COLORADO...

CITY           SKY/WX    TMP DP  RH WIND       PRES   REMARKS
CRAIG          FAIR      44  40  85 SE6       30.07R
HAYDEN         CLOUDY    43  37  81 SE3       30.07R
MEEKER         MOCLDY    41  38  89 NE3       30.06R
MOUNT WERNER   NOT AVBL
STEAMBOAT SPGS CLOUDY    39  37  93 CALM      30.07S
WALDEN         MOCLDY    34  32  93 SE7       30.10R WCI  28
$$

COZ006>008-011-280700-
...WEST CENTRAL VALLEYS...

CITY           SKY/WX    TMP DP  RH WIND       PRES   REMARKS
GRAND JUNCTION FAIR      49  45  86 NE8       29.98S
MONTROSE       MOCLDY    51  35  54 SE3       30.06R
EAGLE          FAIR      39  39 100 E6        30.11R
RIFLE          FAIR      44  36  73 E8        30.03F
DELTA          MOCLDY    56  41  58 CALM      30.02S
NUCLA          MOCLDY    54  36  50 E8        30.07S
$$

COZ017>023-064>068-280700-
...SOUTHWEST COLORADO...

CITY           SKY/WX    TMP DP  RH WIND       PRES   REMARKS
DURANGO        FAIR      39  31  72 CALM      30.05S
CORTEZ         FAIR      50  34  54 SE9       30.03R
PAGOSA SPRINGS FAIR      41  36  81 CALM      30.10S
TELLURIDE      CLOUDY    40  32  73 CALM      30.18S
WOLF CREEK PAS FAIR      30  21  69 W5        30.27S WCI  25
$$

COZ009-010-012-014-032>034-037-058>063-280700-
...CENTRAL COLORADO...

CITY           SKY/WX    TMP DP  RH WIND       PRES   REMARKS
ASPEN          FAIR      36  32  85 S5        30.10R
BUENA VISTA    FAIR      32  28  84 W8        30.10S WCI  25
COPPER MTN     NOT AVBL
BERTHOUD PASS  CLOUDY    23  14  68 NW28      30.19S WCI   6
COTTONWOOD PAS FAIR      39  28  65 W8        30.15F
GUNNISON       FAIR      37  32  81 CALM      30.14R
KREMMLING      FAIR      36  32  87 CALM      30.11R
LEADVILLE      FAIR      29  26  89 N3        30.15R
MONARCH PASS   FAIR      28  25  86 W13       30.32S WCI  18
SALIDA         FAIR      39  34  82 NW3       30.16F
SUNLIGHT       FAIR      34  32  93 SW5       30.23R WCI  30
WILKERSON PASS MOCLDY    30  28  93 W7        30.21S WCI  23
$$

COZ069>075-280700-
...SAN LUIS VALLEY/SANGRE DE CRISTO MOUNTAINS...

CITY           SKY/WX    TMP DP  RH WIND       PRES   REMARKS
ALAMOSA        FAIR      37  36  96 NE3       30.09R
LA VETA PASS   FAIR      32  32 100 S12       30.15F WCI  23
SAGUACHE       FAIR      37  32  81 N8        30.10S
$$

COZ035-036-038>040-280700-
...NORTHERN COLORADO FRONT RANGE...

CITY           SKY/WX    TMP DP  RH WIND       PRES   REMARKS
DENVER INTL AP FAIR      46  41  82 SW9       29.96F
DMNS CITY PARK   N/A     48  41  76 S5        29.96F
AURORA         PTCLDY    45  43  91 SW5       29.97F
FRONT RANGE AP NOT AVBL
ERIE MUNI ARPT FAIR      48  43  83 S5        29.95F
BOULDER MUN AP FAIR      50  41  71 W8        29.95S
CENTENNIAL     FAIR      44  37  76 SW9       29.98F
BROOMFIELD     FAIR      48  41  76 W5        29.97F
FORT COLLINS   FAIR      48  41  76 CALM      29.94F
LONGMONT       FAIR      48  42  80 NW5       29.96F
$$

COZ041-046-047-076>085-087-088-280700-
...PIKES PEAK/PALMER DIVIDE AND SOUTHERN FOOTHILLS...

CITY           SKY/WX    TMP DP  RH WIND       PRES   REMARKS
COLO. SPRINGS  MOCLDY    43  37  79 NE6       30.01F
A. F. ACADEMY  FAIR      41  36  81 NW2       30.02F
SCHRIEVER AFB  NOT AVBL
ELLICOTT       FAIR     N/A N/A N/A NW3       29.99F
FALCON         FAIR      40  35  82 W8        30.04F
FORT CARSON    FAIR      47  39  75 NW7       29.99F
LIMON          FAIR      40  39  97 NW8       29.96S
MONUMENT HILL  FAIR      37  34  87 SW7       30.03F
TRINIDAD       FAIR      45  41  86 W8        30.02F
$$

COZ042>045-048>051-090-091-280700-
...NORTHEAST COLORADO...

CITY           SKY/WX    TMP DP  RH WIND       PRES   REMARKS
GREELEY ARPT   FAIR      48  46  93 S5        29.94S
AKRON          FAIR      46  42  86 NW10      29.92S
BURLINGTON     FAIR      47  43  86 NW8       29.90R
WRAY           FAIR     N/A N/A N/A W6        29.89R
STERLING       FAIR      46  45  93 NW9       29.90S
HOLYOKE        FAIR      54  48  82 NW8       29.89R
FORT MORGAN    FAIR      45  40  82 W6        29.93S
$$

COZ086-089-092>099-280700-
...SOUTHEAST COLORADO...

CITY           SKY/WX    TMP DP  RH WIND       PRES   REMARKS
PUEBLO         MOCLDY    53  46  77 NW9       29.96F
LA JUNTA       FAIR      51  45  79 W9        29.94F
LAMAR          FAIR      47  44  90 W8        29.90R
SPRINGFIELD      N/A     44  40  85 W10       29.93S
$$




USA.gov is the U.S. government's official web portal to all federal, state and local government web resources and services.